Terug naar catalogus

COSMOS 2251 DEB

ActiefVLEO
NORAD 33939·DEBRIS·🇷🇺 Russia

Gelanceerd Jun 16, 1993 vanaf Plesetsk Cosmodrome

Loading…

Volgende Passages (komende 24 uur)

TLE

VersSource: Space-Track

Epoch: Sep 14, 2026, 04:09 UTC

1 33939U 93036EU  26257.17342980  .00258473  00000-0  47818-2 0  9993
2 33939  73.9879 222.6414 0013000 223.9101 136.1078 15.47922320929354

Volg COSMOS 2251 DEB in realtime met AllMySat

Download on the App Store